DW6610 Weather Reports


time (UTC)temp
F
wind
direction
speed
knots
gust
knots
rain 1hr
in
rain 24hr
in
rain mn
in
humidity
%
barometer
mb
20260901191054 100 93 0.9 3.5 0.00 0.00 0.00 50 1017.9
20260901190552 100 79 0.9 3.5 0.00 0.00 0.00 53 1018.0
20260901190108 100 88 1.7 5.2 0.00 0.00 0.00 48 1018.1
20260901185552 100 90 1.7 5.2 0.00 0.00 0.00 57 1018.2
20260901185051 100 18 0.9 3.5 0.00 0.00 0.00 50 1018.2
20260901184606 100 82 1.7 3.5 0.00 0.00 0.00 53 1018.3
20260901184051 100 138 0.0 4.3 0.00 0.00 0.00 51 1018.3
20260901183555 100 95 0.9 4.3 0.00 0.00 0.00 49 1018.4
20260901183102 100 100 1.7 4.3 0.00 0.00 0.00 48 1018.6
20260901182553 100 80 0.9 3.5 0.00 0.00 0.00 51 1018.6
20260901182052 100 98 0.9 4.3 0.00 0.00 0.00 52 1018.7
20260901181619 100 96 1.7 5.2 0.00 0.00 0.00 50 1018.6
20260901181053 99 106 0.9 5.2 0.00 0.00 0.00 54 1018.6
20260901180552 99 6 0.9 4.3 0.00 0.00 0.00 54 1018.8
20260901180103 99 100 1.7 5.2 0.00 0.00 0.00 54 1018.9
20260901175553 98 79 0.9 5.2 0.00 0.00 0.00 52 1018.9
20260901175051 98 155 1.7 5.2 0.00 0.00 0.00 53 1019.0
20260901174605 99 136 0.0 4.3 0.00 0.00 0.00 54 1019.0
20260901174052 98 44 0.9 4.3 0.00 0.00 0.00 53 1019.2
20260901173552 99 84 0.9 2.6 0.00 0.00 0.00 56 1019.3
20260901173118 98 149 0.9 2.6 0.00 0.00 0.00 53 1019.3
20260901172554 97 0 0.9 1.7 0.00 0.00 0.00 57 1019.4
20260901172052 97 104 0.9 3.5 0.00 0.00 0.00 55 1019.4
20260901171606 98 162 0.9 3.5 0.00 0.00 0.00 53 1019.5
20260901171052 98 127 0.9 3.5 0.00 0.00 0.00 55 1019.6
20260901170553 99 79 0.9 3.5 0.00 0.00 0.00 56 1019.6
20260901170104 98 110 0.9 3.5 0.00 0.00 0.00 57 1019.7
20260901165551 98 83 1.7 3.5 0.00 0.00 0.00 54 1019.8
20260901165052 98 123 0.9 3.5 0.00 0.00 0.00 56 1019.8
20260901164628 98 106 0.9 2.6 0.00 0.00 0.00 59 1019.9
20260901164053 97 65 0.9 5.2 0.00 0.00 0.00 62 1020.0
20260901163552 96 143 0.9 5.2 0.00 0.00 0.00 63 1020.0
20260901163104 96 105 1.7 5.2 0.00 0.00 0.00 61 1020.0
20260901162551 95 138 0.9 2.6 0.00 0.00 0.00 61 1020.0
20260901162052 95 155 0.9 2.6 0.00 0.00 0.00 61 1020.1
20260901161600 95 197 0.9 4.3 0.00 0.00 0.00 61 1020.1
20260901161052 95 156 1.7 4.3 0.00 0.00 0.00 63 1020.2
20260901160552 96 114 0.9 2.6 0.00 0.00 0.00 60 1020.2
20260901160117 96 120 0.9 2.6 0.00 0.00 0.00 62 1020.1
20260901155551 96 73 0.9 5.2 0.00 0.00 0.00 63 1020.2
20260901155051 96 82 0.9 5.2 0.00 0.00 0.00 64 1020.1
20260901154605 95 122 0.0 3.5 0.00 0.00 0.00 64 1020.2
20260901154052 95 96 0.9 3.5 0.00 0.00 0.00 63 1020.3
20260901153552 94 41 0.0 4.3 0.00 0.00 0.00 67 1020.4
20260901153127 94 122 0.9 4.3 0.00 0.00 0.00 65 1020.3
20260901152551 93 113 0.9 4.3 0.00 0.00 0.00 67 1020.3
20260901152054 93 120 1.7 4.3 0.00 0.00 0.00 65 1020.3
20260901151601 93 108 0.9 3.5 0.00 0.00 0.00 70 1020.3
20260901151052 92 0 1.7 3.5 0.00 0.00 0.00 70 1020.3
20260901150552 92 128 1.7 5.2 0.00 0.00 0.00 67 1020.3
20260901150116 92 81 2.6 5.2 0.00 0.00 0.00 69 1020.3
20260901145552 92 125 0.9 3.5 0.00 0.00 0.00 68 1020.4
20260901145051 92 88 0.9 3.5 0.00 0.00 0.00 71 1020.4
20260901144602 92 99 1.7 3.5 0.00 0.00 0.00 70 1020.3
20260901144051 92 0 0.9 3.5 0.00 0.00 0.00 73 1020.2
20260901143552 91 60 0.9 3.5 0.00 0.00 0.00 71 1020.2
20260901143121 91 109 0.0 1.7 0.00 0.00 0.00 72 1020.3
20260901142552 91 94 0.9 2.6 0.00 0.00 0.00 72 1020.3
20260901142052 91 151 0.9 2.6 0.00 0.00 0.00 72 1020.3
20260901141622 91 105 0.0 0.9 0.00 0.00 0.00 73 1020.2
20260901141052 90 62 0.0 0.9 0.00 0.00 0.00 72 1020.3
20260901140551 90 81 0.0 1.7 0.00 0.00 0.00 72 1020.3
20260901140135 89 0 0.0 1.7 0.00 0.00 0.00 72 1020.4
20260901135556 90 85 0.0 1.7 0.00 0.00 0.00 70 1020.4
20260901135052 89 0 0.0 0.9 0.00 0.00 0.00 76 1020.4
20260901134601 89 67 0.0 0.9 0.00 0.00 0.00 76 1020.4
20260901134051 88 0 0.0 0.9 0.00 0.00 0.00 77 1020.4
20260901133551 87 0 0.0 1.7 0.00 0.00 0.00 78 1020.4
20260901133057 86 68 0.0 1.7 0.00 0.00 0.00 78 1020.5
20260901132553 84 0 0.0 1.7 0.00 0.00 0.00 80 1020.5
20260901132051 83 68 0.0 1.7 0.00 0.00 0.00 83 1020.4
20260901131558 81 68 0.9 1.7 0.00 0.00 0.00 84 1020.4
20260901131052 80 89 0.0 0.9 0.00 0.00 0.00 87 1020.3
20260901130552 79 0 0.0 0.9 0.00 0.00 0.00 89 1020.4
20260901130105 78 0 0.0 0.9 0.00 0.00 0.00 92 1020.3
20260901125552 77 0 0.0 0.9 0.00 0.00 0.00 94 1020.3
20260901125052 76 0 0.0 0.9 0.00 0.00 0.00 94 1020.3
20260901124601 75 0 0.0 0.9 0.00 0.00 0.00 95 1020.3
20260901124051 75 0 0.0 0.9 0.00 0.00 0.00 96 1020.2
20260901123553 74 0 0.0 0.0 0.00 0.00 0.00 96 1020.1
20260901123101 74 0 0.0 0.9 0.00 0.00 0.00 96 1020.1
20260901122552 74 0 0.0 0.9 0.00 0.00 0.00 96 1020.1
20260901122051 74 0 0.0 0.0 0.00 0.00 0.00 97 1020.0
20260901121607 73 0 0.0 0.0 0.00 0.00 0.00 97 1020.0
20260901121053 73 0 0.0 0.0 0.00 0.00 0.00 97 1019.9
20260901120550 73 0 0.0 0.0 0.00 0.00 0.00 97 1019.9
20260901120104 73 0 0.0 0.0 0.00 0.00 0.00 97 1019.8
20260901115552 73 0 0.0 0.0 0.00 0.00 0.00 97 1019.7
20260901115054 73 0 0.0 0.9 0.00 0.00 0.00 97 1019.7
20260901114602 73 0 0.0 0.9 0.00 0.00 0.00 97 1019.6
20260901114051 73 0 0.0 0.9 0.00 0.00 0.00 97 1019.5
20260901113551 73 0 0.0 0.9 0.00 0.00 0.00 97 1019.4
20260901113104 73 0 0.0 0.9 0.00 0.00 0.00 97 1019.4
20260901112551 73 0 0.0 0.9 0.00 0.00 0.00 97 1019.3
20260901112051 73 0 0.0 0.0 0.00 0.00 0.00 97 1019.3
20260901111606 73 0 0.0 0.9 0.00 0.00 0.00 97 1019.2
20260901111050 73 0 0.0 0.9 0.00 0.00 0.00 97 1019.2
20260901110552 73 0 0.0 0.0 0.00 0.00 0.00 97 1019.2
20260901110103 73 0 0.0 0.0 0.00 0.00 0.00 97 1019.1
20260901105555 73 0 0.0 0.9 0.00 0.00 0.00 97 1019.2
20260901105056 73 0 0.0 0.9 0.00 0.00 0.00 97 1019.2
20260901104604 73 0 0.0 0.9 0.00 0.00 0.00 97 1019.3
20260901104052 73 0 0.0 0.0 0.00 0.00 0.00 97 1019.1
20260901103551 73 0 0.0 0.0 0.00 0.00 0.00 97 1019.1
20260901103106 73 0 0.0 0.0 0.00 0.00 0.00 97 1019.1
20260901102552 73 0 0.0 0.0 0.00 0.00 0.00 97 1019.1
20260901102052 73 0 0.0 0.0 0.00 0.00 0.00 96 1018.9
20260901101608 73 0 0.0 0.0 0.00 0.00 0.00 97 1019.0
20260901101052 73 0 0.0 0.0 0.00 0.00 0.00 96 1018.9
20260901100553 73 0 0.0 0.0 0.00 0.00 0.00 96 1018.8
20260901100104 73 0 0.0 0.0 0.00 0.00 0.00 96 1018.8
20260901095551 73 0 0.0 0.0 0.00 0.00 0.00 96 1018.7
20260901095051 73 0 0.0 0.0 0.00 0.00 0.00 96 1018.7
20260901094602 73 0 0.0 0.0 0.00 0.00 0.00 96 1018.7
20260901094055 73 0 0.0 0.0 0.00 0.00 0.00 95 1018.6
20260901093551 74 0 0.0 0.0 0.00 0.00 0.00 95 1018.7
20260901093110 74 0 0.0 0.0 0.00 0.00 0.00 95 1018.7
20260901092553 74 0 0.0 0.0 0.00 0.00 0.00 94 1018.7
20260901092052 74 0 0.0 0.0 0.00 0.00 0.00 95 1018.7
20260901091606 74 0 0.0 0.0 0.00 0.00 0.00 94 1018.6
20260901091051 74 0 0.0 0.0 0.00 0.00 0.00 94 1018.6
20260901090551 74 0 0.0 0.0 0.00 0.00 0.00 94 1018.6
20260901090108 74 0 0.0 0.9 0.00 0.00 0.00 93 1018.6
20260901085551 75 0 0.0 0.9 0.00 0.00 0.00 93 1018.5
20260901085051 75 95 0.0 0.9 0.00 0.00 0.00 93 1018.5
20260901084605 75 94 0.0 0.9 0.00 0.00 0.00 94 1018.4
20260901084052 75 0 0.0 0.9 0.00 0.00 0.00 94 1018.5
20260901083552 75 0 0.0 0.9 0.00 0.00 0.00 94 1018.4
20260901083104 74 0 0.0 0.9 0.00 0.00 0.00 95 1018.5
20260901082551 74 95 0.0 0.9 0.00 0.00 0.00 95 1018.4
20260901082055 74 0 0.0 0.0 0.00 0.00 0.00 95 1018.3
20260901081604 74 0 0.0 0.0 0.00 0.00 0.00 95 1018.3
20260901081051 74 0 0.0 0.0 0.00 0.00 0.00 95 1018.4
20260901080551 74 0 0.0 0.0 0.00 0.00 0.00 95 1018.6
20260901080209 74 0 0.0 0.0 0.00 0.00 0.00 95 1018.6
20260901075554 74 0 0.0 0.0 0.00 0.00 0.00 95 1018.5
20260901075051 75 0 0.0 0.0 0.00 0.00 0.00 95 1018.4
20260901074601 75 0 0.0 0.0 0.00 0.00 0.00 95 1018.3
20260901074130 75 0 0.0 0.0 0.00 0.00 0.00 95 1018.4
20260901073552 75 0 0.0 0.0 0.00 0.00 0.00 95 1018.4
20260901073103 75 0 0.0 0.0 0.00 0.00 0.00 95 1018.3
20260901072551 75 0 0.0 0.0 0.00 0.00 0.00 94 1018.2
20260901072056 75 0 0.0 0.0 0.00 0.00 0.00 94 1018.3
20260901071604 75 0 0.0 0.9 0.00 0.00 0.00 94 1018.3
20260901071051 75 0 0.0 0.9 0.00 0.00 0.00 94 1018.2
20260901070551 75 0 0.0 0.9 0.00 0.00 0.00 94 1018.2
20260901070134 75 0 0.0 0.0 0.00 0.00 0.00 94 1018.2
20260901065551 75 0 0.0 0.0 0.00 0.00 0.00 94 1018.2
20260901065052 75 0 0.0 0.0 0.00 0.00 0.00 94 1018.3
20260901064610 75 0 0.0 0.0 0.00 0.00 0.00 94 1018.3
20260901064053 75 0 0.0 0.0 0.00 0.00 0.00 94 1018.3
20260901063551 76 0 0.0 0.0 0.00 0.00 0.00 93 1018.2
20260901063106 76 0 0.0 0.0 0.00 0.00 0.00 93 1018.3
20260901062552 76 0 0.0 0.0 0.00 0.00 0.00 93 1018.2
20260901062052 76 0 0.0 0.0 0.00 0.00 0.00 93 1018.3
20260901061610 76 0 0.0 0.0 0.00 0.00 0.00 93 1018.3
20260901061051 76 0 0.0 0.0 0.00 0.00 0.00 93 1018.3
20260901060555 77 0 0.0 0.0 0.00 0.00 0.00 92 1018.4
20260901060107 77 0 0.0 0.9 0.00 0.00 0.00 92 1018.4
20260901055552 77 0 0.0 0.9 0.00 0.00 0.00 92 1018.4
20260901055052 77 0 0.0 0.9 0.00 0.00 0.00 91 1018.5
20260901054607 77 0 0.0 0.9 0.00 0.00 0.00 90 1018.5
20260901054049 77 0 0.0 0.9 0.00 0.00 0.00 90 1018.5
20260901053553 77 0 0.0 0.0 0.00 0.00 0.00 89 1018.5
20260901053111 77 0 0.0 0.0 0.00 0.00 0.00 89 1018.4
20260901052551 78 0 0.0 0.0 0.00 0.00 0.00 88 1018.4
20260901052051 78 0 0.0 0.0 0.00 0.00 0.00 88 1018.4
20260901051608 78 0 0.0 0.0 0.00 0.00 0.00 88 1018.3
20260901051051 78 0 0.0 0.0 0.00 0.00 0.00 87 1018.3
20260901050551 79 0 0.0 0.9 0.00 0.00 0.00 87 1018.4
20260901050104 79 0 0.0 0.9 0.00 0.00 0.00 86 1018.4
20260901045549 79 0 0.0 0.9 0.00 0.00 0.00 85 1018.4
20260901045052 79 0 0.0 0.0 0.00 0.00 0.00 84 1018.3
20260901044620 80 0 0.0 0.9 0.00 0.00 0.00 83 1018.3
20260901044051 80 0 0.0 0.9 0.00 0.00 0.00 83 1018.2
20260901043552 80 95 0.0 0.9 0.00 0.00 0.00 83 1018.2
20260901043104 80 95 0.0 0.9 0.00 0.00 0.00 83 1018.2
20260901042552 80 0 0.0 0.9 0.00 0.00 0.00 83 1018.2
20260901042051 80 0 0.0 0.9 0.00 0.00 0.00 82 1018.2
20260901041559 80 0 0.0 1.7 0.00 0.00 0.00 82 1018.3
20260901041052 80 0 0.0 1.7 0.00 0.00 0.00 83 1018.2
20260901040551 80 0 0.0 0.9 0.00 0.00 0.00 84 1018.1
20260901040108 79 77 0.0 0.9 0.00 0.00 0.00 85 1018.2
20260901035552 79 0 0.0 0.9 0.00 0.00 0.00 86 1018.1
20260901035052 79 0 0.0 0.0 0.00 0.00 0.00 86 1018.1
20260901034601 79 0 0.0 0.0 0.00 0.00 0.00 87 1018.1
20260901034053 80 0 0.0 0.0 0.00 0.00 0.00 86 1018.0
20260901033551 80 0 0.0 0.0 0.00 0.00 0.00 86 1018.0
20260901033103 80 0 0.0 0.9 0.00 0.00 0.00 85 1018.0
20260901032553 80 0 0.0 0.9 0.00 0.00 0.00 85 1018.0
20260901032050 81 0 0.0 0.9 0.00 0.00 0.00 85 1018.0
20260901031604 81 0 0.0 0.9 0.00 0.00 0.00 84 1018.0
20260901031051 81 0 0.0 0.9 0.00 0.00 0.00 83 1018.0
20260901030554 81 0 0.0 0.0 0.00 0.00 0.00 82 1017.9
20260901030105 82 0 0.0 0.0 0.00 0.00 0.00 81 1017.9
20260901025553 82 0 0.0 0.0 0.00 0.00 0.00 81 1017.9
20260901025053 82 0 0.0 0.0 0.00 0.00 0.00 80 1018.0
20260901024605 83 0 0.0 0.0 0.00 0.00 0.00 79 1017.9
20260901024053 83 0 0.0 0.0 0.00 0.00 0.00 76 1017.9
20260901023551 83 0 0.0 0.9 0.00 0.00 0.00 74 1018.0
20260901023102 84 0 0.0 0.9 0.00 0.00 0.00 73 1017.9
20260901022551 84 76 0.0 0.9 0.00 0.00 0.00 73 1017.7
20260901022051 84 0 0.0 0.9 0.00 0.00 0.00 73 1017.7
20260901021613 84 0 0.0 0.9 0.00 0.00 0.00 73 1017.8
20260901021052 84 0 0.0 0.9 0.00 0.00 0.00 74 1017.7
20260901020552 84 76 0.0 0.9 0.00 0.00 0.00 74 1017.7
20260901020104 84 0 0.0 0.9 0.00 0.00 0.00 74 1017.5
20260901015552 84 0 0.0 0.9 0.00 0.00 0.00 74 1017.5
20260901015051 84 0 0.0 0.9 0.00 0.00 0.00 74 1017.4
20260901014604 85 75 0.0 0.9 0.00 0.00 0.00 73 1017.4
20260901014052 85 0 0.0 1.7 0.00 0.00 0.00 72 1017.4
20260901013552 85 0 0.0 1.7 0.00 0.00 0.00 72 1017.3
20260901013119 85 0 0.0 0.9 0.00 0.00 0.00 72 1017.2
20260901012553 86 0 0.0 0.9 0.00 0.00 0.00 71 1017.2
20260901012051 86 86 0.0 0.9 0.00 0.00 0.00 70 1017.2
20260901011600 86 0 0.0 0.9 0.00 0.00 0.00 68 1017.2
20260901011052 87 0 0.0 0.9 0.00 0.00 0.00 67 1017.1
20260901010553 87 0 0.0 0.9 0.00 0.00 0.00 65 1017.1
20260901010056 88 0 0.0 0.9 0.00 0.00 0.00 64 1017.0
20260901005552 88 0 0.0 0.9 0.00 0.00 0.00 64 1017.0
20260901005050 89 0 0.0 0.9 0.00 0.00 0.00 63 1017.0
20260901004608 89 0 0.0 0.9 0.00 0.00 0.00 62 1016.8
20260901004052 89 0 0.0 0.9 0.00 0.00 0.00 61 1016.8
20260901003552 90 0 0.0 0.9 0.00 0.00 0.00 61 1016.8
20260901003104 90 0 0.0 0.9 0.00 0.00 0.00 59 1016.8
20260901002552 91 0 0.0 2.6 0.00 0.00 0.00 58 1016.8
20260901002053 91 86 0.0 2.6 0.00 0.00 0.00 57 1016.8
20260901001605 92 0 0.0 2.6 0.00 0.00 0.00 56 1016.8
20260901001055 92 0 0.0 1.7 0.00 0.00 0.00 55 1016.9
20260901000551 93 0 0.9 1.7 0.00 0.00 0.00 55 1017.0
20260901000107 93 0 0.0 2.6 0.00 0.00 0.00 54 1016.9
20260831235552 93 85 0.0 2.6 0.00 0.00 0.00 53 1016.9
20260831235056 94 45 0.9 2.6 0.00 0.00 0.00 52 1017.0
20260831234602 94 0 0.0 3.5 0.00 0.00 0.00 51 1017.0
20260831234052 95 108 0.9 3.5 0.00 0.00 0.00 51 1017.0
20260831233551 96 0 0.0 1.7 0.00 0.00 0.00 50 1017.1
20260831233104 97 263 0.0 3.5 0.00 0.00 0.00 49 1017.2
20260831232551 97 79 0.9 3.5 0.00 0.00 0.00 48 1017.1
20260831232051 98 82 0.9 4.3 0.00 0.00 0.00 48 1017.2
20260831231632 98 283 0.0 4.3 0.00 0.00 0.00 48 1017.2
20260831231052 98 131 0.9 2.6 0.00 0.00 0.00 48 1017.2
20260831230552 99 64 0.9 2.6 0.00 0.00 0.00 48 1017.2
20260831230110 100 304 0.9 2.6 0.00 0.00 0.00 46 1017.2
20260831225551 100 79 0.0 2.6 0.00 0.00 0.00 47 1017.3
20260831225051 99 88 0.9 2.6 0.00 0.00 0.00 48 1017.2
20260831224637 100 79 1.7 2.6 0.00 0.00 0.00 49 1017.2
20260831224051 100 102 0.0 1.7 0.00 0.00 0.00 47 1017.3
20260831223552 100 96 0.0 2.6 0.00 0.00 0.00 49 1017.3
20260831223110 99 79 0.9 4.3 0.00 0.00 0.00 48 1017.4
20260831222552 99 80 0.0 4.3 0.00 0.00 0.00 48 1017.4
20260831222051 99 101 0.9 4.3 0.00 0.00 0.00 48 1017.4
20260831221614 98 81 0.0 2.6 0.00 0.00 0.00 49 1017.5
20260831221053 98 267 0.9 2.6 0.00 0.00 0.00 48 1017.4
20260831220553 100 72 0.9 2.6 0.00 0.00 0.00 47 1017.5
20260831220109 100 79 0.9 4.3 0.00 0.00 0.00 48 1017.4
20260831215553 100 82 0.9 4.3 0.00 0.00 0.00 49 1017.5
20260831215053 100 32 0.9 2.6 0.00 0.00 0.00 48 1017.4
20260831214608 100 75 0.9 4.3 0.00 0.00 0.00 48 1017.5
20260831214056 99 138 0.9 4.3 0.00 0.00 0.00 49 1017.4
20260831213552 99 12 0.9 4.3 0.00 0.00 0.00 48 1017.5
20260831213117 100 65 1.7 4.3 0.00 0.00 0.00 48 1017.5
20260831212552 100 316 0.9 3.5 0.00 0.00 0.00 49 1017.6
20260831212051 100 91 0.9 3.5 0.00 0.00 0.00 51 1017.6
20260831211610 100 112 0.9 4.3 0.00 0.00 0.00 47 1017.7
20260831211052 100 79 0.9 4.3 0.00 0.00 0.00 47 1017.7
20260831210551 100 340 0.9 4.3 0.00 0.00 0.00 48 1017.8
20260831210107 100 96 0.9 3.5 0.00 0.00 0.00 52 1017.8
20260831205552 99 87 0.9 3.5 0.00 0.00 0.00 52 1017.8
20260831205052 99 84 0.9 3.5 0.00 0.00 0.00 50 1017.8
20260831204606 99 94 0.9 3.5 0.00 0.00 0.00 54 1017.8
20260831204053 98 84 0.9 3.5 0.00 0.00 0.00 53 1017.8
20260831203551 97 92 0.9 5.2 0.00 0.00 0.00 55 1017.9
20260831203103 98 95 0.9 5.2 0.00 0.00 0.00 51 1018.0
20260831202552 99 107 1.7 5.2 0.00 0.00 0.00 51 1017.9
20260831202052 99 92 0.9 4.3 0.00 0.00 0.00 53 1018.0
20260831201613 99 69 0.9 3.5 0.00 0.00 0.00 50 1018.0
20260831201052 98 95 0.9 2.6 0.00 0.00 0.00 56 1018.0
20260831200551 98 98 0.9 5.2 0.00 0.00 0.00 53 1018.1
20260831200103 97 76 1.7 5.2 0.00 0.00 0.00 54 1018.2
20260831195555 97 96 1.7 4.3 0.00 0.00 0.00 55 1018.2
20260831195051 97 118 1.7 4.3 0.00 0.00 0.00 54 1018.3
20260831194618 97 82 1.7 3.5 0.00 0.00 0.00 54 1018.4
20260831194052 97 93 0.9 4.3 0.00 0.00 0.00 55 1018.5
20260831193553 97 56 0.9 4.3 0.00 0.00 0.00 53 1018.5
20260831193105 98 75 1.7 5.2 0.00 0.00 0.00 53 1018.5
20260831192551 97 148 0.9 5.2 0.00 0.00 0.00 56 1018.6
20260831192050 97 85 1.7 5.2 0.00 0.00 0.00 54 1018.6
20260831191607 96 116 0.9 2.6 0.00 0.00 0.00 57 1018.7